Time,TemperatureF,DewpointF,PressureIn,WindDirection,WindDirectionDegrees,WindSpeedMPH,WindSpeedGustMPH,Humidity,HourlyPrecipIn,Conditions,Clouds,dailyrainin,SoftwareType,DateUTC
2013-04-19 00:03:00,43.0,30.0,29.73,NNW,340,7.0,29.0,60,-99.99,,,-99.99,,2013-04-19 05:03:00,
2013-04-19 00:11:00,43.0,30.0,29.73,NW,305,13.0,18.0,60,-99.99,,,-99.99,,2013-04-19 05:11:00,
2013-04-19 00:22:00,43.0,30.0,29.73,NW,305,13.0,18.0,60,-99.99,,,-99.99,,2013-04-19 05:22:00,
2013-04-19 00:32:00,43.0,31.0,29.75,NNW,340,11.0,20.0,62,-99.99,,,-99.99,,2013-04-19 05:32:00,
2013-04-19 00:42:00,42.0,30.0,29.74,NW,305,12.0,30.0,61,-99.99,,,-99.99,,2013-04-19 05:42:00,
2013-04-19 00:52:00,42.0,30.0,29.74,NW,305,12.0,30.0,61,-99.99,,,-99.99,,2013-04-19 05:52:00,
2013-04-19 01:02:00,42.0,27.0,29.74,NW,320,17.0,28.0,56,-99.99,,,-99.99,,2013-04-19 06:02:00,
2013-04-19 01:12:00,42.0,28.0,29.75,North,0,9.0,33.0,57,-99.99,,,-99.99,,2013-04-19 06:12:00,
2013-04-19 01:22:00,42.0,28.0,29.75,North,0,9.0,33.0,57,-99.99,,,-99.99,,2013-04-19 06:22:00,
2013-04-19 01:32:00,42.0,28.0,29.74,NW,310,10.0,20.0,59,-99.99,,,-99.99,,2013-04-19 06:32:00,
2013-04-19 01:42:00,41.0,27.0,29.75,NW,325,20.0,30.0,57,-99.99,,,-99.99,,2013-04-19 06:42:00,
2013-04-19 01:52:00,41.0,27.0,29.75,NW,325,20.0,30.0,57,-99.99,,,-99.99,,2013-04-19 06:52:00,
2013-04-19 02:02:00,42.0,27.0,29.75,WNW,290,17.0,28.0,57,-99.99,,,-99.99,,2013-04-19 07:02:00,
2013-04-19 02:12:00,42.0,28.0,29.75,NNW,330,13.0,20.0,58,-99.99,,,-99.99,,2013-04-19 07:12:00,
2013-04-19 02:21:00,42.0,28.0,29.75,NNW,330,13.0,20.0,58,-99.99,,,-99.99,,2013-04-19 07:21:00,
2013-04-19 02:32:00,42.0,28.0,29.75,NW,310,9.0,26.0,59,-99.99,,,-99.99,,2013-04-19 07:32:00,
2013-04-19 02:42:00,41.0,27.0,29.75,NW,310,15.0,29.0,56,-99.99,,,-99.99,,2013-04-19 07:42:00,
2013-04-19 02:52:00,41.0,27.0,29.75,NW,310,15.0,29.0,56,-99.99,,,-99.99,,2013-04-19 07:52:00,
2013-04-19 03:02:00,41.0,26.0,29.74,NW,305,17.0,26.0,55,-99.99,,,-99.99,,2013-04-19 08:02:00,
2013-04-19 03:12:00,41.0,26.0,29.75,NW,320,15.0,22.0,54,-99.99,,,-99.99,,2013-04-19 08:12:00,
2013-04-19 03:21:00,41.0,26.0,29.75,NW,320,15.0,22.0,54,-99.99,,,-99.99,,2013-04-19 08:21:00,
2013-04-19 03:32:00,41.0,26.0,29.74,North,350,14.0,26.0,54,-99.99,,,-99.99,,2013-04-19 08:32:00,
2013-04-19 03:42:00,41.0,26.0,29.75,NW,315,14.0,21.0,55,-99.99,,,-99.99,,2013-04-19 08:42:00,
2013-04-19 03:52:00,41.0,26.0,29.75,NW,315,14.0,21.0,55,-99.99,,,-99.99,,2013-04-19 08:52:00,
2013-04-19 04:01:00,41.0,26.0,29.74,NW,305,14.0,27.0,55,-99.99,,,-99.99,,2013-04-19 09:01:00,
2013-04-19 04:12:00,41.0,26.0,29.74,NNW,330,15.0,24.0,55,-99.99,,,-99.99,,2013-04-19 09:12:00,
2013-04-19 04:21:00,41.0,26.0,29.74,NNW,330,15.0,24.0,55,-99.99,,,-99.99,,2013-04-19 09:21:00,
2013-04-19 04:32:00,41.0,27.0,29.75,NW,320,9.0,27.0,56,-99.99,,,-99.99,,2013-04-19 09:32:00,
2013-04-19 04:43:00,41.0,27.0,29.75,NW,310,16.0,27.0,56,-99.99,,,-99.99,,2013-04-19 09:43:00,
2013-04-19 04:52:00,41.0,27.0,29.75,NW,310,16.0,27.0,56,-99.99,,,-99.99,,2013-04-19 09:52:00,
2013-04-19 05:02:00,41.0,26.0,29.75,WNW,300,14.0,25.0,55,-99.99,,,-99.99,,2013-04-19 10:02:00,
2013-04-19 05:13:00,41.0,24.0,29.75,WNW,300,15.0,27.0,52,-99.99,,,-99.99,,2013-04-19 10:13:00,
2013-04-19 05:23:00,41.0,24.0,29.75,WNW,300,15.0,27.0,52,-99.99,,,-99.99,,2013-04-19 10:23:00,
2013-04-19 05:33:00,40.0,24.0,29.75,WNW,290,17.0,29.0,51,-99.99,,,-99.99,,2013-04-19 10:33:00,
2013-04-19 05:42:00,40.0,24.0,29.75,NW,320,11.0,23.0,52,-99.99,,,-99.99,,2013-04-19 10:42:00,
2013-04-19 05:52:00,40.0,24.0,29.75,NW,320,11.0,23.0,52,-99.99,,,-99.99,,2013-04-19 10:52:00,
2013-04-19 06:03:00,40.0,25.0,29.76,WNW,300,12.0,26.0,53,-99.99,,,-99.99,,2013-04-19 11:03:00,
2013-04-19 06:11:00,40.0,23.0,29.75,West,280,13.0,26.0,51,-99.99,,,-99.99,,2013-04-19 11:11:00,
2013-04-19 06:22:00,40.0,23.0,29.75,West,280,13.0,26.0,51,-99.99,,,-99.99,,2013-04-19 11:22:00,
2013-04-19 06:32:00,40.0,24.0,29.76,NW,310,10.0,22.0,51,-99.99,,,-99.99,,2013-04-19 11:32:00,
2013-04-19 06:42:00,40.0,24.0,29.77,NW,325,6.0,20.0,51,-99.99,,,-99.99,,2013-04-19 11:42:00,
2013-04-19 06:52:00,40.0,24.0,29.77,NW,325,6.0,20.0,51,-99.99,,,-99.99,,2013-04-19 11:52:00,
2013-04-19 07:03:00,40.0,22.0,29.78,WNW,300,18.0,24.0,49,-99.99,,,-99.99,,2013-04-19 12:03:00,
2013-04-19 07:12:00,40.0,23.0,29.79,NW,325,10.0,24.0,50,-99.99,,,-99.99,,2013-04-19 12:12:00,
2013-04-19 07:22:00,40.0,23.0,29.79,NW,325,10.0,24.0,50,-99.99,,,-99.99,,2013-04-19 12:22:00,
2013-04-19 07:32:00,40.0,22.0,29.80,NW,320,16.0,29.0,49,-99.99,,,-99.99,,2013-04-19 12:32:00,
2013-04-19 07:42:00,40.0,23.0,29.80,NW,325,8.0,24.0,50,-99.99,,,-99.99,,2013-04-19 12:42:00,
2013-04-19 07:52:00,40.0,23.0,29.80,NW,325,8.0,24.0,50,-99.99,,,-99.99,,2013-04-19 12:52:00,
2013-04-19 08:01:00,40.0,23.0,29.82,WNW,300,13.0,28.0,51,-99.99,,,-99.99,,2013-04-19 13:01:00,
2013-04-19 08:11:00,40.0,25.0,29.83,NW,325,7.0,22.0,53,-99.99,,,-99.99,,2013-04-19 13:11:00,
2013-04-19 08:21:00,40.0,25.0,29.83,NW,325,7.0,22.0,53,-99.99,,,-99.99,,2013-04-19 13:21:00,
2013-04-19 08:32:00,40.0,24.0,29.82,NW,305,14.0,24.0,51,-99.99,,,-99.99,,2013-04-19 13:32:00,
2013-04-19 08:42:00,40.0,24.0,29.83,WNW,295,11.0,24.0,52,-99.99,,,-99.99,,2013-04-19 13:42:00,
2013-04-19 08:52:00,40.0,24.0,29.83,WNW,295,11.0,24.0,52,-99.99,,,-99.99,,2013-04-19 13:52:00,
2013-04-19 09:02:00,40.0,24.0,29.84,NNW,335,15.0,25.0,53,-99.99,,,-99.99,,2013-04-19 14:02:00,
2013-04-19 09:11:00,40.0,26.0,29.84,NW,310,8.0,26.0,56,-99.99,,,-99.99,,2013-04-19 14:11:00,
2013-04-19 09:22:00,40.0,26.0,29.84,NW,310,8.0,26.0,56,-99.99,,,-99.99,,2013-04-19 14:22:00,
2013-04-19 09:32:00,40.0,24.0,29.84,WNW,290,13.0,21.0,53,-99.99,,,-99.99,,2013-04-19 14:32:00,
2013-04-19 09:42:00,39.0,25.0,29.84,WNW,300,11.0,34.0,55,-99.99,,,-99.99,,2013-04-19 14:42:00,
2013-04-19 09:52:00,39.0,25.0,29.84,WNW,300,11.0,34.0,55,-99.99,,,-99.99,,2013-04-19 14:52:00,
2013-04-19 10:02:00,39.0,24.0,29.84,NW,315,16.0,25.0,53,-99.99,,,-99.99,,2013-04-19 15:02:00,
2013-04-19 10:12:00,40.0,24.0,29.84,WNW,285,16.0,24.0,53,-99.99,,,-99.99,,2013-04-19 15:12:00,
2013-04-19 10:21:00,40.0,24.0,29.84,WNW,285,16.0,24.0,53,-99.99,,,-99.99,,2013-04-19 15:21:00,
2013-04-19 10:33:00,40.0,24.0,29.84,WNW,285,14.0,23.0,52,-99.99,,,-99.99,,2013-04-19 15:33:00,
2013-04-19 10:43:00,40.0,24.0,29.85,NW,315,11.0,27.0,52,-99.99,,,-99.99,,2013-04-19 15:43:00,
2013-04-19 10:52:00,40.0,24.0,29.85,NW,315,11.0,27.0,52,-99.99,,,-99.99,,2013-04-19 15:52:00,
2013-04-19 11:03:00,40.0,23.0,29.85,NW,320,14.0,22.0,51,-99.99,,,-99.99,,2013-04-19 16:03:00,
2013-04-19 11:13:00,40.0,24.0,29.85,WNW,295,15.0,21.0,51,-99.99,,,-99.99,,2013-04-19 16:13:00,
2013-04-19 11:23:00,40.0,24.0,29.85,WNW,295,15.0,21.0,51,-99.99,,,-99.99,,2013-04-19 16:23:00,
2013-04-19 11:32:00,41.0,24.0,29.85,WNW,295,9.0,23.0,51,-99.99,,,-99.99,,2013-04-19 16:32:00,
2013-04-19 11:42:00,41.0,24.0,29.86,NW,310,7.0,22.0,51,-99.99,,,-99.99,,2013-04-19 16:42:00,
2013-04-19 11:52:00,41.0,24.0,29.86,NW,310,7.0,22.0,51,-99.99,,,-99.99,,2013-04-19 16:52:00,
2013-04-19 12:02:00,42.0,24.0,29.87,West,280,11.0,26.0,50,-99.99,,,-99.99,,2013-04-19 17:02:00,
2013-04-19 12:12:00,42.0,25.0,29.87,WNW,295,11.0,24.0,49,-99.99,,,-99.99,,2013-04-19 17:12:00,
2013-04-19 12:21:00,42.0,25.0,29.87,WNW,295,11.0,24.0,49,-99.99,,,-99.99,,2013-04-19 17:21:00,
2013-04-19 12:33:00,43.0,24.0,29.87,West,275,13.0,23.0,47,-99.99,,,-99.99,,2013-04-19 17:33:00,
2013-04-19 12:42:00,44.0,25.0,29.87,WNW,295,10.0,21.0,47,-99.99,,,-99.99,,2013-04-19 17:42:00,
2013-04-19 12:52:00,44.0,25.0,29.87,WNW,295,10.0,21.0,47,-99.99,,,-99.99,,2013-04-19 17:52:00,
2013-04-19 13:02:00,44.0,24.0,29.87,WNW,290,13.0,20.0,45,-99.99,,,-99.99,,2013-04-19 18:02:00,
2013-04-19 13:13:00,45.0,25.0,29.87,WNW,290,10.0,25.0,46,-99.99,,,-99.99,,2013-04-19 18:13:00,
2013-04-19 13:23:00,45.0,25.0,29.87,WNW,290,10.0,25.0,46,-99.99,,,-99.99,,2013-04-19 18:23:00,
2013-04-19 13:33:00,46.0,25.0,29.86,WNW,290,12.0,24.0,43,-99.99,,,-99.99,,2013-04-19 18:33:00,
2013-04-19 13:43:00,46.0,25.0,29.86,West,270,14.0,26.0,42,-99.99,,,-99.99,,2013-04-19 18:43:00,
2013-04-19 13:52:00,46.0,25.0,29.86,West,270,14.0,26.0,42,-99.99,,,-99.99,,2013-04-19 18:52:00,
2013-04-19 14:02:00,47.0,24.0,29.86,West,280,17.0,30.0,40,-99.99,,,-99.99,,2013-04-19 19:02:00,
2013-04-19 14:11:00,48.0,23.0,29.85,WNW,295,19.0,29.0,37,-99.99,,,-99.99,,2013-04-19 19:11:00,
2013-04-19 14:21:00,48.0,23.0,29.85,WNW,295,19.0,29.0,37,-99.99,,,-99.99,,2013-04-19 19:21:00,
2013-04-19 14:32:00,49.0,24.0,29.86,WNW,290,11.0,28.0,38,-99.99,,,-99.99,,2013-04-19 19:32:00,
2013-04-19 14:42:00,49.0,23.0,29.85,WNW,300,12.0,23.0,36,-99.99,,,-99.99,,2013-04-19 19:42:00,
2013-04-19 14:52:00,49.0,23.0,29.85,WNW,300,12.0,23.0,36,-99.99,,,-99.99,,2013-04-19 19:52:00,
2013-04-19 15:02:00,50.0,24.0,29.86,NW,305,13.0,26.0,35,-99.99,,,-99.99,,2013-04-19 20:02:00,
2013-04-19 15:11:00,51.0,24.0,29.87,NW,315,13.0,23.0,34,-99.99,,,-99.99,,2013-04-19 20:11:00,
2013-04-19 15:22:00,51.0,24.0,29.87,NW,315,13.0,23.0,34,-99.99,,,-99.99,,2013-04-19 20:22:00,
2013-04-19 15:32:00,51.0,22.0,29.86,NW,320,15.0,28.0,32,-99.99,,,-99.99,,2013-04-19 20:32:00,
2013-04-19 15:42:00,51.0,23.0,29.86,WNW,295,10.0,24.0,33,-99.99,,,-99.99,,2013-04-19 20:42:00,
2013-04-19 15:51:00,51.0,23.0,29.86,WNW,295,10.0,24.0,33,-99.99,,,-99.99,,2013-04-19 20:51:00,
2013-04-19 16:01:00,52.0,22.0,29.87,WNW,295,16.0,28.0,30,-99.99,,,-99.99,,2013-04-19 21:01:00,
2013-04-19 16:11:00,51.0,22.0,29.87,NW,305,15.0,29.0,31,-99.99,,,-99.99,,2013-04-19 21:11:00,
2013-04-19 16:21:00,51.0,22.0,29.87,NW,305,15.0,29.0,31,-99.99,,,-99.99,,2013-04-19 21:21:00,
2013-04-19 16:32:00,51.0,22.0,29.87,West,275,13.0,26.0,32,-99.99,,,-99.99,,2013-04-19 21:32:00,
2013-04-19 16:42:00,52.0,23.0,29.87,West,275,11.0,24.0,31,-99.99,,,-99.99,,2013-04-19 21:42:00,
2013-04-19 16:52:00,52.0,23.0,29.87,West,275,11.0,24.0,31,-99.99,,,-99.99,,2013-04-19 21:52:00,
2013-04-19 17:02:00,52.0,20.0,29.87,WNW,295,15.0,25.0,29,-99.99,,,-99.99,,2013-04-19 22:02:00,
2013-04-19 17:12:00,53.0,21.0,29.88,WNW,290,14.0,30.0,28,-99.99,,,-99.99,,2013-04-19 22:12:00,
2013-04-19 17:22:00,53.0,21.0,29.88,WNW,290,14.0,30.0,28,-99.99,,,-99.99,,2013-04-19 22:22:00,
2013-04-19 17:33:00,52.0,20.0,29.89,NW,315,9.0,26.0,28,-99.99,,,-99.99,,2013-04-19 22:33:00,
2013-04-19 17:42:00,52.0,19.0,29.89,NW,315,15.0,28.0,27,-99.99,,,-99.99,,2013-04-19 22:42:00,
2013-04-19 17:52:00,52.0,19.0,29.89,NW,315,15.0,28.0,27,-99.99,,,-99.99,,2013-04-19 22:52:00,
2013-04-19 18:03:00,52.0,21.0,29.90,NNW,330,6.0,26.0,29,-99.99,,,-99.99,,2013-04-19 23:03:00,
2013-04-19 18:11:00,52.0,21.0,29.91,West,280,11.0,27.0,29,-99.99,,,-99.99,,2013-04-19 23:11:00,
2013-04-19 18:22:00,52.0,21.0,29.91,West,280,11.0,27.0,29,-99.99,,,-99.99,,2013-04-19 23:22:00,
2013-04-19 18:32:00,52.0,20.0,29.92,NW,310,10.0,24.0,29,-99.99,,,-99.99,,2013-04-19 23:32:00,
2013-04-19 18:42:00,51.0,19.0,29.92,WNW,300,16.0,27.0,28,-99.99,,,-99.99,,2013-04-19 23:42:00,
2013-04-19 18:52:00,51.0,19.0,29.92,WNW,300,16.0,27.0,28,-99.99,,,-99.99,,2013-04-19 23:52:00,
2013-04-19 19:02:00,52.0,21.0,29.93,NW,320,7.0,24.0,30,-99.99,,,-99.99,,2013-04-20 00:02:00,
2013-04-19 19:12:00,52.0,22.0,29.93,NW,320,7.0,15.0,30,-99.99,,,-99.99,,2013-04-20 00:12:00,
2013-04-19 19:21:00,52.0,22.0,29.93,NW,320,7.0,15.0,30,-99.99,,,-99.99,,2013-04-20 00:21:00,
2013-04-19 19:32:00,51.0,20.0,29.94,NW,320,15.0,24.0,29,-99.99,,,-99.99,,2013-04-20 00:32:00,
2013-04-19 19:42:00,50.0,19.0,29.95,NW,325,11.0,28.0,29,-99.99,,,-99.99,,2013-04-20 00:42:00,
2013-04-19 19:51:00,50.0,19.0,29.95,NW,325,11.0,28.0,29,-99.99,,,-99.99,,2013-04-20 00:51:00,
2013-04-19 20:01:00,50.0,21.0,29.96,NW,315,10.0,18.0,31,-99.99,,,-99.99,,2013-04-20 01:01:00,
2013-04-19 20:11:00,50.0,21.0,29.96,WNW,300,6.0,18.0,32,-99.99,,,-99.99,,2013-04-20 01:11:00,
2013-04-19 20:21:00,50.0,21.0,29.96,WNW,300,6.0,18.0,32,-99.99,,,-99.99,,2013-04-20 01:21:00,
2013-04-19 20:32:00,50.0,20.0,29.97,NW,325,12.0,18.0,30,-99.99,,,-99.99,,2013-04-20 01:32:00,
2013-04-19 20:42:00,49.0,20.0,29.97,NNW,340,5.0,13.0,31,-99.99,,,-99.99,,2013-04-20 01:42:00,
2013-04-19 20:52:00,49.0,20.0,29.97,NNW,340,5.0,13.0,31,-99.99,,,-99.99,,2013-04-20 01:52:00,
2013-04-19 21:01:00,49.0,21.0,29.98,NW,325,4.0,13.0,33,-99.99,,,-99.99,,2013-04-20 02:01:00,
2013-04-19 21:11:00,49.0,21.0,29.99,NNW,330,5.0,7.0,34,-99.99,,,-99.99,,2013-04-20 02:11:00,
2013-04-19 21:21:00,49.0,21.0,29.99,NNW,330,5.0,7.0,34,-99.99,,,-99.99,,2013-04-20 02:21:00,
2013-04-19 21:32:00,48.0,22.0,29.99,NNW,330,3.0,11.0,35,-99.99,,,-99.99,,2013-04-20 02:32:00,
2013-04-19 21:42:00,48.0,23.0,30.00,NW,320,3.0,7.0,37,-99.99,,,-99.99,,2013-04-20 02:42:00,
2013-04-19 21:52:00,48.0,23.0,30.00,NW,320,3.0,7.0,37,-99.99,,,-99.99,,2013-04-20 02:52:00,
2013-04-19 22:01:00,47.0,25.0,30.00,NW,305,3.0,5.0,41,-99.99,,,-99.99,,2013-04-20 03:01:00,
2013-04-19 22:11:00,46.0,24.0,30.01,NW,320,2.0,4.0,42,-99.99,,,-99.99,,2013-04-20 03:11:00,
2013-04-19 22:21:00,46.0,24.0,30.01,NW,320,2.0,4.0,42,-99.99,,,-99.99,,2013-04-20 03:21:00,
2013-04-19 22:33:00,44.0,25.0,30.02,SW,235,1.0,3.0,48,-99.99,,,-99.99,,2013-04-20 03:33:00,
2013-04-19 22:43:00,43.0,25.0,30.02,West,260,1.0,2.0,49,-99.99,,,-99.99,,2013-04-20 03:43:00,
2013-04-19 22:52:00,43.0,25.0,30.02,West,260,1.0,2.0,49,-99.99,,,-99.99,,2013-04-20 03:52:00,
2013-04-19 23:03:00,42.0,26.0,30.02,SW,225,1.0,2.0,52,-99.99,,,-99.99,,2013-04-20 04:03:00,
2013-04-19 23:12:00,42.0,26.0,30.02,WSW,255,0.0,2.0,53,-99.99,,,-99.99,,2013-04-20 04:12:00,
2013-04-19 23:23:00,42.0,26.0,30.02,WSW,255,0.0,2.0,53,-99.99,,,-99.99,,2013-04-20 04:23:00,
2013-04-19 23:32:00,41.0,26.0,30.02,SW,235,0.0,0.0,54,-99.99,,,-99.99,,2013-04-20 04:32:00,
2013-04-19 23:42:00,42.0,27.0,30.02,SSW,210,0.0,1.0,55,-99.99,,,-99.99,,2013-04-20 04:42:00,
2013-04-19 23:52:00,42.0,27.0,30.02,SSW,210,0.0,1.0,55,-99.99,,,-99.99,,2013-04-20 04:52:00,